2023-003E (55137 NORAD) Tracking and Keplerian Element Data

This shows tracking and keplerian element data for the satellite.

Feedback or suggestion? Click here.




ElementValue
Catalog55137
Name2023-003E
Epoch Orbit1155
Epoch Day85.19434799
Epoch Year2023
RAAN172.7154
Inclination97.2585
Eccentricity0.0013474
Argument of Perigee35.2063
Mean Anonmoly20.3706
Mean Motion15.2305704
Decay Rate0.00015259
L11 55137U 23003E 23085.19434799 .00015259 00000+0 64839-3 0 9997
L22 55137 97.2585 172.7154 0013474 35.2063 20.3706 15.23057040 11551



Live tracking and technical data element details for 2023-003E (NORAD 55137). 2023-003E can be tracked NOW for your location showing map with azimuth and elevation plus other details from your city location.







IsCatalogInMostPopularTable: catalog: 55137, numindb: 10
Update: records affected: 1



GetName: 55137 2023-003E

Hit Count: updated at: Mon, 27 Mar 2023 06:28:30 GMT